{"data":{"norad_id":66167,"intl_designator":"2025-240X","name":"STARLINK-35641","alt_names":[],"object_type":"PAYLOAD","status":"ACTIVE","operator":null,"country":"US","launch_date":"2025-10-25","launch_site_code":"AFWTR","launch_vehicle":null,"mission":null,"orbit_class":"UNKNOWN","rcs_meters":null,"size_class":null,"mass_kg":null,"dimensions":null,"purposes":["comms"],"wikipedia_slug":null,"has_3d_model":false,"image_url":null,"decayed_at":null,"tle_current":{"epoch":"2026-05-25T02:00:33.891840Z","epoch_age_seconds":61747,"freshness":"FRESH","line1":"1 66167U 25240X   26145.08372560  .00022995  00000+0  68956-3 0  9991","line2":"2 66167  53.1588  67.3213 0000958  79.8170 280.2941 15.34403254 33692","mean_motion":15.34403254,"eccentricity":9.58e-5,"inclination_deg":53.1588,"raan_deg":67.3213,"arg_perigee_deg":79.817,"mean_anomaly_deg":280.2941,"bstar":0.00068956,"rev_number":3369,"period_min":93.847559058943,"perigee_km":462.03821708197,"apogee_km":463.34892021892,"semimajor_km":6840.8305686504,"source":"CELESTRAK","updated_at":"2026-05-25T13:38:21.073364Z"}}}